Puyallup, WA
on Saturday, January 12, 2013

Saturday
Previous Day Next Day
Daily Summary
 ActualAverage (KSEA)Record (KSEA)
Temperature
Mean Temperature °F 42°F  
Max Temperature 35°F 47°F 59°F (1986)
Min Temperature 19°F 37°F 13°F (1963)
Degree Days
Heating Degree Days 38 23  
Month to date heating degree days 284  
Since 1 July heating degree days 2222  
Cooling Degree Days 0 0  
Month to date cooling degree days 0  
Year to date cooling degree days 0  
Moisture
Dew Point 23°F   
Average Humidity 91    
Maximum Humidity 100    
Minimum Humidity 60    
Precipitation
Precipitation 0.00 in 0.19 in 1.30 in (1975)
Month to date precipitation 2.27  
Year to date precipitation 2.27  
Snow
Snow 0.00 in in 1.80 in (1969)
Month to date snowfall  
Since 1 July snowfall  
Snow Depth in   
Wind
Wind Speed 0 mph   
Max Wind Speed 5 mph   
Max Gust Speed mph   
Visibility 10 miles   
Events     

Key: T is trace of precipitation, MM is missing value
Source: NWS Daily Summary
Time(PST)TemperatureDew PointHumidity Pressure Visibility Wind DirectionWind SpeedGust SpeedPrecipitationEvents Conditions
12:15 AM 23.0°F 23.0°F 100% 30.30 in 10.0 miles Calm Calm - N/A   Clear
12:35 AM 23.0°F 23.0°F 100% 30.30 in 10.0 miles Calm Calm - N/A   Clear
12:55 AM 21.2°F 21.2°F 100% 30.30 in 10.0 miles Calm Calm - N/A   Clear
1:15 AM 21.2°F 21.2°F 100% 30.31 in 10.0 miles Calm Calm - N/A   Clear
1:35 AM 21.2°F 21.2°F 100% 30.31 in 10.0 miles Calm Calm - N/A   Clear
1:55 AM 23.0°F 23.0°F 100% 30.31 in 10.0 miles Calm Calm - N/A   Clear
2:15 AM 23.0°F 23.0°F 100% 30.31 in 10.0 miles Calm Calm - N/A   Clear
2:35 AM 21.2°F 21.2°F 100% 30.31 in 10.0 miles Calm Calm - N/A   Clear
2:55 AM 21.2°F 21.2°F 100% 30.31 in 10.0 miles Calm Calm - N/A   Clear
3:15 AM 19.4°F 19.4°F 100% 30.32 in 10.0 miles Calm Calm - N/A   Clear
3:35 AM 19.4°F 19.4°F 100% 30.31 in 10.0 miles Calm Calm - N/A   Clear
3:55 AM 19.4°F 19.4°F 100% 30.31 in 10.0 miles Calm Calm - N/A   Clear
4:15 AM 19.4°F 19.4°F 100% 30.31 in 10.0 miles Calm Calm - N/A   Clear
4:35 AM 21.2°F 19.4°F 93% 30.32 in 10.0 miles Calm Calm - N/A   Clear
4:55 AM 19.4°F 19.4°F 100% 30.32 in 10.0 miles Calm Calm - N/A   Clear
5:15 AM 19.4°F 19.4°F 100% 30.32 in 10.0 miles Calm Calm - N/A   Clear
5:35 AM 19.4°F 19.4°F 100% 30.32 in 10.0 miles Calm Calm - N/A   Clear
5:55 AM 19.4°F 17.6°F 93% 30.32 in 10.0 miles Calm Calm - N/A   Clear
6:15 AM 19.4°F 17.6°F 93% 30.32 in 10.0 miles Calm Calm - N/A   Clear
6:35 AM 19.4°F 19.4°F 100% 30.32 in 10.0 miles Calm Calm - N/A   Clear
6:55 AM 19.4°F 19.4°F 100% 30.32 in 10.0 miles Calm Calm - N/A   Clear
7:15 AM 19.4°F 19.4°F 100% 30.33 in 10.0 miles Calm Calm - N/A   Clear
7:35 AM 19.4°F 19.4°F 100% 30.34 in 10.0 miles Calm Calm - N/A   Clear
7:55 AM 21.2°F 21.2°F 100% 30.34 in 10.0 miles Calm Calm - N/A   Clear
8:15 AM 23.0°F 23.0°F 100% 30.35 in 10.0 miles Calm Calm - N/A   Clear
8:35 AM 23.0°F 21.2°F 93% 30.36 in 10.0 miles Calm Calm - N/A   Clear
8:55 AM 23.0°F 23.0°F 100% 30.36 in 10.0 miles Calm Calm - N/A   Clear
9:15 AM 23.0°F 23.0°F 100% 30.36 in 10.0 miles Calm Calm - N/A   Clear
9:35 AM 24.8°F 24.8°F 100% 30.36 in 10.0 miles Calm Calm - N/A   Clear
10:15 AM 28.4°F 26.6°F 93% 30.37 in 10.0 miles Calm Calm - N/A   Clear
10:35 AM 30.2°F 26.6°F 86% 30.37 in 10.0 miles Calm Calm - N/A   Clear
10:55 AM 32.0°F 26.6°F 80% 30.37 in 10.0 miles Calm Calm - N/A   Clear
11:15 AM 32.0°F 26.6°F 80% 30.37 in 10.0 miles Calm Calm - N/A   Clear
11:35 AM 33.8°F 26.6°F 75% 30.36 in 10.0 miles Calm Calm - N/A   Clear
11:55 AM 33.8°F 26.6°F 75% 30.36 in 10.0 miles NNW 3.5 mph - N/A   Clear
12:15 PM 33.8°F 26.6°F 75% 30.36 in 10.0 miles NNW 4.6 mph - N/A   Clear
12:35 PM 35.6°F 24.8°F 65% 30.36 in 10.0 miles NNW 3.5 mph - N/A   Clear
12:55 PM 35.6°F 24.8°F 65% 30.35 in 10.0 miles NNW 3.5 mph - N/A   Clear
1:15 PM 35.6°F 24.8°F 65% 30.35 in 10.0 miles Calm Calm - N/A   Clear
1:35 PM 35.6°F 24.8°F 65% 30.36 in 10.0 miles NW 4.6 mph - N/A   Clear
1:55 PM 35.6°F 23.0°F 60% 30.37 in 10.0 miles NNE 3.5 mph - N/A   Clear
2:15 PM 35.6°F 24.8°F 65% 30.37 in 10.0 miles North 3.5 mph - N/A   Clear
2:35 PM 35.6°F 26.6°F 70% 30.37 in 10.0 miles Calm Calm - N/A   Clear
2:55 PM 35.6°F 24.8°F 65% 30.37 in 10.0 miles ENE 3.5 mph - N/A   Partly Cloudy
3:15 PM 35.6°F 24.8°F 65% 30.37 in 10.0 miles North 4.6 mph - N/A   Clear
3:35 PM 35.6°F 23.0°F 60% 30.38 in 10.0 miles Calm Calm - N/A   Clear
3:55 PM 35.6°F 23.0°F 60% 30.38 in 10.0 miles Calm Calm - N/A   Clear
4:15 PM 33.8°F 23.0°F 65% 30.37 in 10.0 miles Calm Calm - N/A   Clear
4:35 PM 32.0°F 24.8°F 75% 30.37 in 10.0 miles Calm Calm - N/A   Clear
4:55 PM 30.2°F 24.8°F 80% 30.38 in 10.0 miles Calm Calm - N/A   Clear
5:15 PM 28.4°F 26.6°F 93% 30.38 in 10.0 miles Calm Calm - N/A   Clear
5:35 PM 26.6°F 24.8°F 93% 30.38 in 10.0 miles Calm Calm - N/A   Clear
5:55 PM 26.6°F 24.8°F 93% 30.38 in 10.0 miles Calm Calm - N/A   Clear
6:15 PM 24.8°F 24.8°F 100% 30.38 in 10.0 miles Calm Calm - N/A   Clear
6:35 PM 24.8°F 24.8°F 100% 30.39 in 10.0 miles Calm Calm - N/A   Clear
6:55 PM 24.8°F 23.0°F 93% 30.39 in 10.0 miles Calm Calm - N/A   Clear
7:15 PM 24.8°F 24.8°F 100% 30.39 in 10.0 miles Calm Calm - N/A   Clear
7:35 PM 24.8°F 24.8°F 100% 30.40 in 10.0 miles Calm Calm - N/A   Clear
7:55 PM 23.0°F 23.0°F 100% 30.39 in 10.0 miles Calm Calm - N/A   Partly Cloudy
8:15 PM 23.0°F 23.0°F 100% 30.39 in 10.0 miles Calm Calm - N/A   Clear
8:35 PM 23.0°F 21.2°F 93% 30.39 in 10.0 miles Calm Calm - N/A   Clear
8:55 PM 23.0°F 23.0°F 100% 30.40 in 10.0 miles Calm Calm - N/A   Clear
9:15 PM 23.0°F 23.0°F 100% 30.40 in 10.0 miles Calm Calm - N/A   Clear
9:35 PM 23.0°F 23.0°F 100% 30.39 in 10.0 miles Calm Calm - N/A   Clear
9:55 PM 19.4°F 19.4°F 100% 30.40 in 10.0 miles Calm Calm - N/A   Clear
10:15 PM 19.4°F 19.4°F 100% 30.40 in 10.0 miles Calm Calm - N/A   Clear
10:35 PM 19.4°F 19.4°F 100% 30.41 in 10.0 miles Calm Calm - N/A   Clear
10:55 PM 19.4°F 19.4°F 100% 30.42 in 10.0 miles Calm Calm - N/A   Clear
11:15 PM 19.4°F 19.4°F 100% 30.42 in 10.0 miles Calm Calm - N/A   Clear
11:35 PM 19.4°F 19.4°F 100% 30.43 in 10.0 miles Calm Calm - N/A   Clear
11:55 PM 19.4°F 19.4°F 100% 30.42 in 10.0 miles Calm Calm - N/A   Clear
Moon Phase
Jan. 12 Jan. 18 Jan. 26 Feb. 03 Feb. 10
Sunrise:07:52 AM (PST) Moon Rise:08:07 AM (PST)1/12
Sunset:04:43 PM (PST) Moon Set:06:27 PM (PST)1/12

Copyright © 2014 The Weather Underground, Inc.